Powrót do katalogu

FLOCK 4H 7

AktywnyNaukaSSO
NORAD 66710·PAYLOAD·🇺🇸 United States

Wystrzelony Nov 28, 2025 z Vandenberg Space Force Base

Loading…

Następne Przeloty (najbliższe 24 godziny)

TLE

ŚwieżeSource: CelesTrak SupGP

Epoka: Sep 14, 2026, 12:45 UTC

1 66710C 25276AW  26257.53136574  .00009207  00000+0  41559-3 0  2579
2 66710  97.4113 329.6136 0003834  85.8203 129.4591 15.21049978    19

Śledź FLOCK 4H 7 w czasie rzeczywistym z AllMySat

Download on the App Store